NSZ2NZ EKCH-EKYT

Flight info

Callsign NSZ2NZ
Flight time 0h 31m
Altitude 16000
Route GOLGA DCT AAL
Aircraft B738/M-SDE2E3FGHIRWXY/LB1

Departure

Time 2026-05-08 18:43
Airport Copenhagen Kastrup Airport (EKCH)

Arrival

Time 2026-05-08 19:14
Airport Aalborg Airport (EKYT)
Time Latitude Longitude Altitude Speed Heading
2026-05-08 18:22 55.62724 12.64098 23 ft 0 kts 33°
2026-05-08 18:34 55.62712 12.64084 25 ft 2 kts 37°
2026-05-08 18:34 55.62699 12.64065 26 ft 2 kts 42°
2026-05-08 18:35 55.62687 12.64045 26 ft 2 kts 52°
2026-05-08 18:35 55.62679 12.64019 28 ft 2 kts 75°
2026-05-08 18:35 55.62679 12.63990 24 ft 2 kts 111°
2026-05-08 18:35 55.62684 12.63972 26 ft 1 kts 122°
2026-05-08 18:36 55.62684 12.63970 26 ft 0 kts 123°
2026-05-08 18:37 55.62684 12.63972 23 ft 1 kts 123°
2026-05-08 18:37 55.62669 12.64014 24 ft 7 kts 122°
2026-05-08 18:38 55.62633 12.64109 22 ft 12 kts 123°
2026-05-08 18:38 55.62562 12.64200 20 ft 15 kts 184°
2026-05-08 18:38 55.62484 12.64303 19 ft 15 kts 126°
2026-05-08 18:38 55.62422 12.64437 18 ft 8 kts 143°
2026-05-08 18:39 55.62413 12.64445 18 ft 0 kts 156°
2026-05-08 18:39 55.62397 12.64449 18 ft 5 kts 178°
2026-05-08 18:39 55.62357 12.64435 18 ft 4 kts 193°
2026-05-08 18:39 55.62355 12.64434 18 ft 0 kts 193°
2026-05-08 18:40 55.62351 12.64432 18 ft 2 kts 194°
2026-05-08 18:41 55.62302 12.64410 19 ft 12 kts 194°
2026-05-08 18:41 55.62196 12.64342 15 ft 20 kts 205°
2026-05-08 18:41 55.62063 12.64231 20 ft 21 kts 205°
2026-05-08 18:41 55.61934 12.64124 23 ft 20 kts 205°
2026-05-08 18:42 55.61803 12.64076 27 ft 19 kts 177°
2026-05-08 18:42 55.61672 12.64087 27 ft 18 kts 178°
2026-05-08 18:42 55.61604 12.64045 29 ft 0 kts 220°
2026-05-08 18:42 55.61594 12.64030 29 ft 3 kts 220°
2026-05-08 18:43 55.61566 12.63987 26 ft 14 kts 221°
2026-05-08 18:43 55.61252 12.63491 26 ft 107 kts 220°
2026-05-08 18:43 55.60468 12.62346 137 ft 175 kts 215°
2026-05-08 18:43 55.59425 12.60879 857 ft 204 kts 216°
2026-05-08 18:44 55.58280 12.59208 1742 ft 221 kts 217°
2026-05-08 18:44 55.57093 12.57428 2711 ft 227 kts 217°
2026-05-08 18:44 55.55894 12.55550 3659 ft 233 kts 219°
2026-05-08 18:44 55.54751 12.53462 4390 ft 243 kts 237°
2026-05-08 18:45 55.54370 12.50557 4904 ft 255 kts 277°
2026-05-08 18:45 55.55075 12.47707 5550 ft 256 kts 308°
2026-05-08 18:45 55.56033 12.45024 6144 ft 261 kts 298°
2026-05-08 18:45 55.57108 12.42476 6750 ft 261 kts 325°
2026-05-08 18:46 55.58654 12.40845 7387 ft 259 kts 336°
2026-05-08 18:46 55.60287 12.39466 7972 ft 261 kts 337°
2026-05-08 18:46 55.61943 12.38096 8545 ft 264 kts 336°
2026-05-08 18:46 55.63608 12.36680 9146 ft 266 kts 335°
2026-05-08 18:47 55.65287 12.35211 9739 ft 270 kts 334°
2026-05-08 18:47 55.66985 12.33688 10206 ft 280 kts 334°
2026-05-08 18:47 55.68779 12.32051 10451 ft 301 kts 333°
2026-05-08 18:47 55.70723 12.30253 10620 ft 328 kts 333°
2026-05-08 18:48 55.72812 12.28298 10829 ft 351 kts 333°
2026-05-08 18:48 55.75027 12.26207 11261 ft 365 kts 332°
2026-05-08 18:48 55.77286 12.24060 11950 ft 371 kts 332°
2026-05-08 18:48 55.79538 12.21909 12757 ft 373 kts 332°
2026-05-08 18:49 55.81832 12.19712 13575 ft 375 kts 332°
2026-05-08 18:49 55.84145 12.17492 14306 ft 379 kts 332°
2026-05-08 18:49 55.86486 12.15240 14981 ft 382 kts 332°
2026-05-08 18:49 55.88829 12.12982 15682 ft 385 kts 332°
2026-05-08 18:50 55.91197 12.10697 16202 ft 388 kts 332°
2026-05-08 18:50 55.93595 12.08380 16273 ft 398 kts 331°
2026-05-08 18:50 55.96074 12.05981 16289 ft 409 kts 331°
2026-05-08 18:50 55.98588 12.03545 16290 ft 412 kts 331°
2026-05-08 18:51 56.01070 12.01136 16278 ft 411 kts 331°
2026-05-08 18:51 56.03560 11.98622 16272 ft 411 kts 327°
2026-05-08 18:51 56.05773 11.95408 16289 ft 410 kts 314°
2026-05-08 18:51 56.07607 11.91505 16291 ft 409 kts 307°
2026-05-08 18:52 56.09344 11.87452 16279 ft 410 kts 307°
2026-05-08 18:52 56.11075 11.83386 16270 ft 410 kts 307°
2026-05-08 18:52 56.12811 11.79314 16277 ft 410 kts 307°
2026-05-08 18:52 56.14547 11.75255 16284 ft 411 kts 307°
2026-05-08 18:53 56.16293 11.71185 16281 ft 411 kts 307°
2026-05-08 18:53 56.18045 11.67108 16283 ft 411 kts 307°
2026-05-08 18:53 56.19795 11.63038 16277 ft 412 kts 307°
2026-05-08 18:53 56.21545 11.58965 16273 ft 412 kts 307°
2026-05-08 18:54 56.23295 11.54888 16284 ft 412 kts 307°
2026-05-08 18:54 56.25021 11.50860 16278 ft 412 kts 307°
2026-05-08 18:54 56.26794 11.46716 16285 ft 412 kts 307°
2026-05-08 18:54 56.28515 11.42685 16280 ft 412 kts 307°
2026-05-08 18:55 56.32006 11.34492 16289 ft 412 kts 307°
2026-05-08 18:55 56.33748 11.30390 16286 ft 412 kts 307°
2026-05-08 18:55 56.35485 11.26295 16280 ft 411 kts 307°
2026-05-08 18:56 56.37221 11.22197 16276 ft 411 kts 307°
2026-05-08 18:56 56.38958 11.18088 16279 ft 411 kts 307°
2026-05-08 18:56 56.40689 11.13986 16278 ft 411 kts 307°
2026-05-08 18:56 56.42421 11.09875 16273 ft 410 kts 307°
2026-05-08 18:57 56.44111 11.05857 16254 ft 393 kts 307°
2026-05-08 18:57 56.45189 11.03293 16258 ft 382 kts 306°
2026-05-08 18:57 56.47309 10.98237 16269 ft 374 kts 306°
2026-05-08 18:57 56.48882 10.94474 16288 ft 375 kts 306°
2026-05-08 18:58 56.49926 10.91976 16289 ft 376 kts 306°
2026-05-08 18:58 56.51501 10.88202 16265 ft 371 kts 306°
2026-05-08 18:58 56.53027 10.84540 16260 ft 357 kts 306°
2026-05-08 18:58 56.54512 10.80975 15735 ft 356 kts 306°
2026-05-08 18:59 56.55989 10.77419 15111 ft 350 kts 306°
2026-05-08 18:59 56.57445 10.73911 14495 ft 346 kts 306°
2026-05-08 18:59 56.58881 10.70447 13870 ft 341 kts 306°
2026-05-08 18:59 56.60297 10.67025 13197 ft 337 kts 306°
2026-05-08 19:00 56.61701 10.63625 12528 ft 334 kts 306°
2026-05-08 19:00 56.63092 10.60255 11842 ft 332 kts 306°
2026-05-08 19:00 56.64472 10.56906 11162 ft 330 kts 306°
2026-05-08 19:00 56.65845 10.53570 10498 ft 329 kts 306°
2026-05-08 19:01 56.67212 10.50244 9803 ft 327 kts 306°
2026-05-08 19:01 56.68569 10.46936 9080 ft 326 kts 306°
2026-05-08 19:01 56.69904 10.43678 8387 ft 324 kts 306°
2026-05-08 19:01 56.71247 10.40396 7764 ft 320 kts 306°
2026-05-08 19:02 56.72560 10.37184 7412 ft 309 kts 306°
2026-05-08 19:02 56.72666 10.36925 7399 ft 307 kts 306°
2026-05-08 19:02 56.73712 10.34362 7294 ft 292 kts 306°
2026-05-08 19:02 56.74886 10.31484 7270 ft 284 kts 306°
2026-05-08 19:03 56.76065 10.28586 7270 ft 283 kts 306°
2026-05-08 19:03 56.77238 10.25700 7267 ft 283 kts 306°
2026-05-08 19:03 56.78410 10.22814 7269 ft 283 kts 306°
2026-05-08 19:03 56.79582 10.19924 7275 ft 283 kts 306°
2026-05-08 19:04 56.80755 10.17030 7275 ft 284 kts 306°
2026-05-08 19:04 56.81942 10.14097 7281 ft 288 kts 306°
2026-05-08 19:04 56.83124 10.11172 7259 ft 285 kts 306°
2026-05-08 19:04 56.84292 10.08281 7256 ft 281 kts 306°
2026-05-08 19:05 56.85451 10.05406 7263 ft 281 kts 306°
2026-05-08 19:05 56.86586 10.02591 7253 ft 276 kts 306°
2026-05-08 19:05 56.87724 9.99762 7273 ft 278 kts 306°
2026-05-08 19:05 56.88879 9.96886 7230 ft 283 kts 306°
2026-05-08 19:06 56.90093 9.93860 6449 ft 303 kts 306°
2026-05-08 19:06 56.91350 9.90724 5705 ft 306 kts 306°
2026-05-08 19:06 56.92614 9.87564 4957 ft 308 kts 306°
2026-05-08 19:06 56.93863 9.84440 4206 ft 308 kts 306°
2026-05-08 19:07 56.95129 9.81267 3477 ft 308 kts 305°
2026-05-08 19:07 56.96357 9.78105 3066 ft 297 kts 299°
2026-05-08 19:07 56.97327 9.74896 2924 ft 278 kts 298°
2026-05-08 19:07 56.98273 9.71920 2792 ft 262 kts 299°
2026-05-08 19:08 56.99164 9.69164 2793 ft 240 kts 299°
2026-05-08 19:08 56.99978 9.66661 2777 ft 216 kts 299°
2026-05-08 19:08 57.00711 9.64413 2767 ft 194 kts 299°
2026-05-08 19:08 57.01384 9.62369 2667 ft 184 kts 299°
2026-05-08 19:09 57.02043 9.60374 2613 ft 182 kts 299°
2026-05-08 19:09 57.02689 9.58428 2583 ft 173 kts 299°
2026-05-08 19:09 57.03304 9.56578 2591 ft 171 kts 299°
2026-05-08 19:09 57.03950 9.54700 2595 ft 174 kts 308°
2026-05-08 19:10 57.04984 9.53720 2597 ft 175 kts
2026-05-08 19:10 57.06116 9.54489 2415 ft 176 kts 37°
2026-05-08 19:10 57.07080 9.55841 2209 ft 171 kts 54°
2026-05-08 19:10 57.07482 9.57813 2080 ft 166 kts 84°
2026-05-08 19:11 57.07722 9.59891 2036 ft 165 kts 80°
2026-05-08 19:11 57.07973 9.61949 1998 ft 164 kts 83°
2026-05-08 19:11 57.08144 9.64000 1977 ft 158 kts 87°
2026-05-08 19:11 57.08272 9.65925 1911 ft 150 kts 88°
2026-05-08 19:12 57.08388 9.67786 1731 ft 144 kts 88°
2026-05-08 19:12 57.08473 9.69135 1581 ft 140 kts 88°
2026-05-08 19:12 57.08583 9.70902 1407 ft 139 kts 88°
2026-05-08 19:12 57.08693 9.72653 1216 ft 139 kts 88°
2026-05-08 19:13 57.08805 9.74423 1031 ft 138 kts 87°
2026-05-08 19:13 57.08916 9.76179 841 ft 137 kts 87°
2026-05-08 19:13 57.09037 9.77921 692 ft 137 kts 85°
2026-05-08 19:13 57.09167 9.79656 521 ft 137 kts 85°
2026-05-08 19:14 57.09281 9.81391 259 ft 136 kts 86°
2026-05-08 19:14 57.09367 9.83076 58 ft 132 kts 86°
2026-05-08 19:14 57.09454 9.84687 18 ft 112 kts 82°
2026-05-08 19:14 57.09512 9.85482 18 ft 9 kts 85°
2026-05-08 19:15 57.09510 9.85628 19 ft 13 kts 113°
2026-05-08 19:15 57.09438 9.85750 18 ft 17 kts 144°
2026-05-08 19:15 57.09333 9.85893 18 ft 21 kts 145°
2026-05-08 19:15 57.09210 9.86071 18 ft 23 kts 142°
2026-05-08 19:16 57.09085 9.86245 18 ft 22 kts 142°
2026-05-08 19:16 57.08964 9.86417 18 ft 22 kts 141°
2026-05-08 19:16 57.08847 9.86588 18 ft 21 kts 142°
2026-05-08 19:16 57.08735 9.86753 18 ft 20 kts 141°
2026-05-08 19:17 57.08649 9.86899 18 ft 10 kts 118°
2026-05-08 19:17 57.08649 9.86936 18 ft 4 kts 79°
2026-05-08 19:17 57.08672 9.87005 18 ft 3 kts 54°
2026-05-08 19:17 57.08675 9.87012 19 ft 0 kts 54°